Location: Narrabri
(30.3170°S, 149.7830°E)
Time: 00:32:42
(UTC+11:00)

Vanguard 3 - All Passes

Search period start: 12 December 2017 00:00
Search period end: 22 December 2017 00:00
Orbit: 509 x 3263 km, 33.3° (Epoch: 10 December)

Date Brightness Start Highest point End Pass type
(mag) Time Alt. Az. Time Alt. Az. Time Alt. Az.
12 Dec - 00:30:54 10° NW 00:46:53 72° NNE 01:06:55 10° ESE visible
12 Dec - 02:45:23 10° W 03:04:46 83° S 03:23:14 10° E visible
12 Dec - 05:02:46 10° WSW 05:23:13 86° SSE 05:37:49 10° ENE visible
12 Dec - 07:21:19 10° WSW 07:38:56 59° NW 07:49:40 10° NE daylight
12 Dec - 09:43:01 10° W 09:50:40 17° NW 09:56:27 10° NNW daylight
12 Dec - 21:10:40 10° NNE 21:17:59 17° NE 21:27:10 10° E visible
12 Dec - 23:17:11 10° NW 23:30:42 55° NE 23:49:38 10° ESE visible
13 Dec - 01:29:39 10° WNW 01:47:08 90° NNE 02:07:06 10° ESE visible
13 Dec - 03:45:39 10° W 04:05:50 81° S 04:22:53 10° E visible
13 Dec - 06:03:30 10° WSW 06:23:18 78° NNW 06:36:21 10° ENE daylight
13 Dec - 08:22:57 10° WSW 08:36:59 34° NW 08:46:09 10° NNE daylight
13 Dec - 22:04:41 10° NNW 22:15:35 36° NE 22:31:20 10° ESE visible
14 Dec - 00:14:55 10° WNW 00:30:04 77° NNE 00:50:20 10° ESE visible
14 Dec - 02:29:15 10° W 02:48:03 82° S 03:07:09 10° E visible
14 Dec - 04:46:08 10° WSW 05:06:38 89° SSE 05:22:06 10° ENE visible
14 Dec - 07:04:27 10° WSW 07:22:24 54° NW 07:33:56 10° NE daylight
14 Dec - 09:27:15 10° W 09:34:16 15° NW 09:39:53 10° NNW daylight
14 Dec - 20:53:58 10° N 21:01:25 19° NE 21:11:16 10° E visible
14 Dec - 23:01:14 10° NW 23:13:57 59° NE 23:32:53 10° ESE visible
15 Dec - 01:13:42 10° WNW 01:30:24 87° SSW 01:50:43 10° ESE visible
15 Dec - 03:29:20 10° W 03:49:10 82° S 04:06:59 10° E visible
15 Dec - 05:46:43 10° WSW 06:06:42 73° NNW 06:20:36 10° NE daylight
15 Dec - 08:06:20 10° W 08:20:26 31° NW 08:30:07 10° N daylight
15 Dec - 21:48:38 10° NNW 21:58:56 40° NE 22:14:40 10° ESE visible
15 Dec - 23:59:06 10° WNW 00:13:22 81° NNE 00:33:38 10° ESE visible
16 Dec - 02:13:13 10° W 02:31:21 81° S 02:50:59 10° E visible
16 Dec - 04:29:35 10° WSW 04:49:57 87° NNW 05:06:16 10° ENE visible
16 Dec - 06:47:39 10° WSW 07:05:44 50° NW 07:18:02 10° NNE daylight
16 Dec - 09:11:52 10° WNW 09:17:49 13° NW 09:22:49 10° NNW daylight
16 Dec - 20:37:34 10° N 20:44:55 22° NE 20:55:07 10° E visible
16 Dec - 22:45:26 10° NW 22:57:20 64° NNE 23:16:02 10° ESE visible
17 Dec - 00:57:54 10° W 01:13:44 85° S 01:34:13 10° E visible
17 Dec - 03:13:06 10° W 03:32:27 84° S 03:50:58 10° E visible
17 Dec - 05:30:00 10° WSW 05:49:57 68° NNW 06:04:43 10° NE visible
17 Dec - 07:49:49 10° W 08:03:47 28° NW 08:13:54 10° N daylight
17 Dec - 21:32:46 10° NNW 21:42:24 43° NE 21:57:53 10° ESE visible
17 Dec - 23:43:24 10° WNW 23:56:47 85° NNE 00:16:53 10° ESE visible
18 Dec - 01:57:16 10° W 02:14:40 81° S 02:34:43 10° E visible
18 Dec - 04:13:08 10° WSW 04:33:09 83° NNW 04:50:18 10° ENE visible
18 Dec - 06:30:56 10° WSW 06:48:56 46° NW 07:01:58 10° NNE daylight
18 Dec - 08:57:20 10° WNW 09:01:17 11° NW 09:04:52 10° NW daylight
18 Dec - 20:21:27 10° N 20:28:31 24° NE 20:38:49 10° E visible
18 Dec - 22:29:47 10° NW 22:40:51 69° NNE 22:59:08 10° ESE visible
19 Dec - 00:42:11 10° W 00:57:09 83° S 01:17:39 10° E visible
19 Dec - 02:56:57 10° WSW 03:15:41 86° SSE 03:34:50 10° ENE visible
19 Dec - 05:13:23 10° WSW 05:33:05 64° NNW 05:48:40 10° NE visible
19 Dec - 07:33:30 10° W 07:47:03 25° NW 07:57:26 10° N daylight
19 Dec - 21:17:04 10° NNW 21:26:01 47° NE 21:41:03 10° ESE visible
19 Dec - 23:27:50 10° WNW 23:40:21 89° NNE 00:00:03 10° ESE visible
20 Dec - 01:41:26 10° W 01:58:01 81° S 02:18:20 10° E visible
20 Dec - 03:56:46 10° WSW 04:16:17 79° NNW 04:34:11 10° ENE visible
20 Dec - 06:14:22 10° WSW 06:32:03 42° NW 06:45:43 10° NNE daylight
20 Dec - 20:05:30 10° N 20:12:14 26° NE 20:22:26 10° E daylight
20 Dec - 22:14:15 10° WNW 22:24:30 74° NNE 22:42:11 10° ESE visible
21 Dec - 00:26:34 10° W 00:40:40 81° S 01:01:01 10° E visible
21 Dec - 02:40:53 10° WSW 02:58:54 89° SSE 03:18:34 10° ENE visible
21 Dec - 04:56:53 10° WSW 05:16:07 59° NW 05:32:26 10° NE visible
21 Dec - 07:17:24 10° W 07:30:15 23° NW 07:40:41 10° N daylight
21 Dec - 18:58:07 10° NE 18:59:07 10° NE 19:00:12 10° ENE daylight
21 Dec - 21:01:28 10° NW 21:09:46 52° NE 21:24:13 10° ESE visible
21 Dec - 23:12:22 10° WNW 23:24:01 87° SSW 23:43:11 10° ESE visible
